Weather History for Reno - Stead, NV

Change the Weather History Date:

Tuesday, May 28, 2013

  Actual Average (KRNO) Record (KRNO)
Temperature  
Mean Temperature 53 °F 63 °F  
Max Temperature 64 °F 77 °F 97 °F (2003)
Min Temperature 42 °F 48 °F 31 °F (1977)
Degree Days  
Heating Degree Days 12 4  
Month to date heating degree days 194  
Since 1 July heating degree days 4856  
Cooling Degree Days 0 2  
Month to date cooling degree days 28  
Year to date cooling degree days 29  
Growing Degree Days 3 (Base 50)    
Moisture  
Dew Point 36 °F    
Average Humidity 56    
Maximum Humidity 87    
Minimum Humidity 30    
Precipitation  
Precipitation 0.02 in 0.01 in 0.93 in (1919)
Month to date precipitation 0.44  
Year to date precipitation 3.72  
Snow  
Snow 0.00 in 0.00 in T in (2011)
Month to date snowfall 0.3  
Since 1 July snowfall 21.8  
Snow Depth -    
Sea Level Pressure  
Sea Level Pressure 29.97 in    
Wind  
Wind Speed 12 mph (WNW)    
Max Wind Speed 20 mph    
Max Gust Speed 31 mph    
Visibility 10 miles    
Events Rain    
T = Trace of Precipitation, MM = Missing Value Source: NWS Daily Summary

Daily Weather History Graph

Daily Weather History Graph

Search for Another Location

Airport:

Trip Planner

Search our weather history database for the weather conditions in past years. The results will help you decide how hot, cold, wet, or windy it might be!

Date:

Astronomy

May. 28, 2013 Rise Set
Actual Time 5:35 AM PDT 8:18 PM PDT
Civil Twilight 5:03 AM PDT 8:50 PM PDT
Nautical Twilight 4:24 AM PDT 9:30 PM PDT
Astronomical Twilight 3:39 AM PDT 10:15 PM PDT
Moon 11:46 PM PDT (5/28) 9:29 AM PDT (5/28)
Length of Visible Light 15h 46m
Length of Day
14h 43m
Waning Gibbous, 82% of the Moon is Illuminated
May 28
Waning Gibbous
May 31
Last Quarter
Jun 8
New
Jun 16
First Quarter
Jun 23
Full

Hourly Weather History & Observations

Time (PDT) Temp. Windchill Dew Point Humidity Pressure Visibility Wind Dir Wind Speed Gust Speed Precip Events Conditions
12:15 AM 46.4 °F 40.1 °F 41.0 °F 81% 29.96 in 10.0 mi West 15.0 mph - N/A   Mostly Cloudy
12:35 AM 46.4 °F 40.1 °F 41.0 °F 81% 29.96 in 10.0 mi West 15.0 mph - N/A   Overcast
12:55 AM 46.4 °F 41.1 °F 41.0 °F 81% 29.96 in 10.0 mi West 11.5 mph - N/A Rain Light Rain
1:15 AM 46.4 °F 40.7 °F 41.0 °F 81% 29.95 in 10.0 mi West 12.7 mph - N/A Rain Light Rain
1:35 AM 46.4 °F 40.4 °F 39.2 °F 76% 29.95 in 10.0 mi West 13.8 mph - N/A   Overcast
1:50 AM 46.4 °F 40.7 °F 41.0 °F 81% 29.94 in 7.0 mi West 12.7 mph - 0.01 in Rain Light Rain
2:10 AM 44.6 °F 38.1 °F 41.0 °F 87% 29.94 in 9.0 mi West 13.8 mph - 0.01 in Rain Light Rain
2:30 AM 46.4 °F 40.1 °F 41.0 °F 81% 29.93 in 10.0 mi West 15.0 mph 20.7 mph 0.01 in Rain Light Rain
2:50 AM 46.4 °F 40.7 °F 41.0 °F 81% 29.93 in 10.0 mi West 12.7 mph - 0.01 in Rain Light Rain
3:15 AM 46.4 °F 41.9 °F 41.0 °F 81% 29.93 in 10.0 mi WNW 9.2 mph - N/A   Overcast
3:35 AM 46.4 °F 41.1 °F 41.0 °F 81% 29.94 in 10.0 mi WNW 11.5 mph - N/A   Overcast
3:55 AM 46.4 °F 41.1 °F 41.0 °F 81% 29.94 in 10.0 mi WNW 11.5 mph - N/A   Overcast
4:15 AM 44.6 °F 38.1 °F 39.2 °F 81% 29.94 in 10.0 mi NW 13.8 mph - N/A   Mostly Cloudy
4:35 AM 44.6 °F 37.4 °F 39.2 °F 81% 29.94 in 10.0 mi WNW 16.1 mph - N/A   Partly Cloudy
4:55 AM 44.6 °F 37.8 °F 39.2 °F 81% 29.93 in 10.0 mi West 15.0 mph 23.0 mph N/A   Clear
5:15 AM 44.6 °F 43.1 °F 39.2 °F 81% 29.94 in 10.0 mi East 3.5 mph - N/A   Clear
5:35 AM 42.8 °F 39.3 °F 39.2 °F 87% 29.95 in 10.0 mi ENE 5.8 mph - N/A   Clear
5:55 AM 44.6 °F 38.8 °F 39.2 °F 81% 29.96 in 10.0 mi NE 11.5 mph - N/A   Mostly Cloudy
6:15 AM 44.6 °F 41.4 °F 39.2 °F 81% 29.96 in 10.0 mi NNE 5.8 mph - N/A   Overcast
6:35 AM 44.6 °F - 39.2 °F 81% 29.96 in 10.0 mi Calm Calm - N/A   Overcast
6:55 AM 46.4 °F 45.2 °F 39.2 °F 76% 29.97 in 10.0 mi NE 3.5 mph - N/A   Overcast
7:15 AM 48.2 °F - 39.2 °F 71% 29.97 in 10.0 mi WNW 3.5 mph - N/A   Overcast
7:35 AM 50.0 °F - 39.2 °F 66% 29.97 in 10.0 mi WNW 5.8 mph - N/A   Overcast
7:55 AM 50.0 °F - 39.2 °F 66% 29.98 in 10.0 mi NW 9.2 mph - N/A   Overcast
8:15 AM 50.0 °F - 39.2 °F 66% 29.98 in 10.0 mi North 10.4 mph - N/A   Overcast
8:35 AM 48.2 °F - 39.2 °F 71% 29.99 in 10.0 mi NNW 11.5 mph - N/A   Overcast
8:55 AM 50.0 °F - 39.2 °F 66% 29.99 in 10.0 mi NW 11.5 mph - N/A   Overcast
9:15 AM 50.0 °F - 39.2 °F 66% 29.99 in 10.0 mi NNW 15.0 mph - N/A   Overcast
9:35 AM 51.8 °F - 37.4 °F 58% 29.99 in 10.0 mi NW 16.1 mph - N/A   Mostly Cloudy
9:55 AM 53.6 °F - 37.4 °F 54% 29.99 in 10.0 mi NW 17.3 mph - N/A   Overcast
10:15 AM 55.4 °F - 37.4 °F 51% 29.99 in 10.0 mi NW 16.1 mph 24.2 mph N/A   Overcast
10:35 AM 53.6 °F - 37.4 °F 54% 29.99 in 10.0 mi West 16.1 mph - N/A Rain Light Rain
10:55 AM 55.4 °F - 37.4 °F 51% 29.99 in 10.0 mi West 13.8 mph 19.6 mph N/A   Mostly Cloudy
11:15 AM 57.2 °F - 35.6 °F 44% 29.99 in 10.0 mi NW 17.3 mph 23.0 mph N/A   Partly Cloudy
11:35 AM 55.4 °F - 35.6 °F 47% 30.00 in 10.0 mi West 13.8 mph 24.2 mph N/A   Scattered Clouds
11:50 AM 55.4 °F - 35.6 °F 47% 30.00 in 10.0 mi WNW 11.5 mph 19.6 mph N/A   Mostly Cloudy
12:15 PM 59.0 °F - 35.6 °F 42% 30.00 in 10.0 mi NW 12.7 mph 18.4 mph N/A   Scattered Clouds
12:35 PM 57.2 °F - 33.8 °F 41% 30.00 in 10.0 mi WNW 13.8 mph 21.9 mph N/A   Mostly Cloudy
12:55 PM 59.0 °F - 33.8 °F 39% 30.00 in 10.0 mi WNW 19.6 mph 24.2 mph N/A   Mostly Cloudy
1:15 PM 59.0 °F - 33.8 °F 39% 29.99 in 10.0 mi West 10.4 mph 21.9 mph N/A   Mostly Cloudy
1:35 PM 59.0 °F - 32.0 °F 36% 29.99 in 10.0 mi West 15.0 mph 20.7 mph N/A   Mostly Cloudy
1:55 PM 62.6 °F - 32.0 °F 32% 29.99 in 10.0 mi WNW 17.3 mph 23.0 mph N/A   Scattered Clouds
2:15 PM 62.6 °F - 32.0 °F 32% 29.99 in 10.0 mi NW 10.4 mph 21.9 mph N/A   Mostly Cloudy
2:35 PM 62.6 °F - 32.0 °F 32% 29.99 in 10.0 mi WNW 15.0 mph 21.9 mph N/A   Mostly Cloudy
2:55 PM 62.6 °F - 32.0 °F 32% 29.99 in 10.0 mi WNW 13.8 mph 21.9 mph N/A   Scattered Clouds
3:15 PM 62.6 °F - 32.0 °F 32% 29.99 in 10.0 mi NW 8.1 mph 21.9 mph N/A   Partly Cloudy
3:35 PM 64.4 °F - 32.0 °F 30% 29.99 in 10.0 mi NW 13.8 mph 24.2 mph N/A   Scattered Clouds
3:55 PM 62.6 °F - 32.0 °F 32% 29.99 in 10.0 mi WNW 15.0 mph 20.7 mph N/A   Mostly Cloudy
4:15 PM 64.4 °F - 32.0 °F 30% 29.98 in 10.0 mi WNW 15.0 mph 19.6 mph N/A   Partly Cloudy
4:35 PM 64.4 °F - 32.0 °F 30% 29.98 in 10.0 mi WNW 13.8 mph 21.9 mph N/A   Scattered Clouds
4:55 PM 64.4 °F - 32.0 °F 30% 29.98 in 10.0 mi WSW 12.7 mph - N/A   Mostly Cloudy
5:15 PM 64.4 °F - 32.0 °F 30% 29.97 in 10.0 mi WNW 15.0 mph - N/A   Mostly Cloudy
5:35 PM 64.4 °F - 32.0 °F 30% 29.97 in 10.0 mi NW 15.0 mph 31.1 mph N/A   Scattered Clouds
5:55 PM 64.4 °F - 32.0 °F 30% 29.97 in 10.0 mi NW 15.0 mph 20.7 mph N/A   Scattered Clouds
6:15 PM 62.6 °F - 32.0 °F 32% 29.97 in 10.0 mi West 9.2 mph - N/A   Partly Cloudy
6:35 PM 60.8 °F - 32.0 °F 34% 29.97 in 10.0 mi WNW 13.8 mph 18.4 mph N/A   Scattered Clouds
6:55 PM 59.0 °F - 32.0 °F 36% 29.97 in 10.0 mi West 12.7 mph - N/A   Scattered Clouds
7:15 PM 60.8 °F - 32.0 °F 34% 29.96 in 10.0 mi West 12.7 mph 18.4 mph N/A   Scattered Clouds
7:35 PM 59.0 °F - 33.8 °F 39% 29.97 in 10.0 mi West 10.4 mph - N/A   Partly Cloudy
7:55 PM 59.0 °F - 33.8 °F 39% 29.97 in 10.0 mi WNW 15.0 mph - N/A   Scattered Clouds
8:15 PM 57.2 °F - 33.8 °F 41% 29.97 in 10.0 mi WNW 9.2 mph - N/A   Partly Cloudy
8:35 PM 55.4 °F - 35.6 °F 47% 29.98 in 10.0 mi WNW 12.7 mph - N/A   Clear
8:55 PM 55.4 °F - 35.6 °F 47% 29.98 in 10.0 mi WNW 11.5 mph - N/A   Clear
9:15 PM 53.6 °F - 35.6 °F 51% 29.98 in 10.0 mi WNW 10.4 mph - N/A   Clear
9:35 PM 53.6 °F - 35.6 °F 51% 29.99 in 10.0 mi WNW 12.7 mph - N/A   Clear
9:55 PM 53.6 °F - 37.4 °F 54% 29.99 in 10.0 mi WNW 10.4 mph - N/A   Clear
10:15 PM 50.0 °F - 35.6 °F 58% 30.00 in 10.0 mi WNW 10.4 mph - N/A   Clear
10:35 PM 51.8 °F - 35.6 °F 54% 30.00 in 10.0 mi WNW 8.1 mph - N/A   Clear
10:55 PM 51.8 °F - 37.4 °F 58% 30.00 in 10.0 mi NW 6.9 mph - N/A   Clear
11:15 PM 51.8 °F - 37.4 °F 58% 29.99 in 10.0 mi West 11.5 mph - N/A   Clear
11:35 PM 50.0 °F - 37.4 °F 62% 29.98 in 10.0 mi WNW 8.1 mph - N/A   Partly Cloudy
11:55 PM 48.2 °F - 37.4 °F 66% 29.97 in 10.0 mi West 6.9 mph - N/A   Clear